Stephenville, TX

12:11 PM CDT on July 28, 2017 (GMT -0500)
Clark Municipal

Weather History for KSEP - December, 2013

Change the Weather History Date:

Wednesday, December 18, 2013

  Actual Average Record
Temperature  
Mean Temperature 53 °F -  
Max Temperature 69 °F 56 °F 77 °F (2012)
Min Temperature 37 °F 32 °F 15 °F (1983)
Degree Days  
Heating Degree Days 12    
Growing Degree Days 3 (Base 50)    
Moisture  
Dew Point 40 °F    
Average Humidity 64    
Maximum Humidity 83    
Minimum Humidity 33    
Precipitation  
Precipitation 0.00 in - - ()
Sea Level Pressure  
Sea Level Pressure 30.17 in    
Wind  
Wind Speed 4 mph (South)    
Max Wind Speed 16 mph    
Max Gust Speed 21 mph    
Visibility 10 miles    
Events      
Averages and records for this station are not official NWS values.
T = Trace of Precipitation, MM = Missing Value Source: NWS Daily Summary

Daily Weather History Graph

Daily Weather History Graph

Search for Another Location

Airport or City:

Trip Planner

Search our weather history database for the weather conditions in past years. The results will help you decide how hot, cold, wet, or windy it might be!

Date:

Astronomy

Dec. 18, 2013 Rise Set
Actual Time 7:28 AM CST 5:30 PM CST
Civil Twilight 7:01 AM CST 5:57 PM CST
Nautical Twilight 6:30 AM CST 6:28 PM CST
Astronomical Twilight 6:00 AM CST 6:58 PM CST
Moon 6:59 PM CST (12/18) 8:13 AM CST (12/18)
Length of Visible Light 10h 56m
Length of Day
10h 02m
Full, 98% of the Moon is Illuminated
Dec 18
Full
Dec 25
Last Quarter
Jan 1
New
Jan 7
First Quarter
Jan 15
Full

Hourly Weather History & Observations

Time (CST) Temp. Windchill Dew Point Humidity Pressure Visibility Wind Dir Wind Speed Gust Speed Precip Events Conditions
12:15 AM 46.9 °F - 34.0 °F 61% 30.29 in 10.0 mi Calm Calm - N/A   Clear
12:35 AM 42.8 °F - 34.7 °F 73% 30.29 in 10.0 mi Calm Calm - N/A   Clear
12:55 AM 45.5 °F - 34.2 °F 65% 30.28 in 10.0 mi Calm Calm - N/A   Clear
1:15 AM 45.5 °F - 34.2 °F 65% 30.28 in 10.0 mi Calm Calm - N/A   Clear
1:35 AM 45.0 °F - 34.2 °F 66% 30.27 in 10.0 mi Calm Calm - N/A   Clear
1:55 AM 45.0 °F - 34.2 °F 66% 30.27 in 5.0 mi Calm Calm - N/A   Clear
2:15 AM 43.7 °F - 33.6 °F 68% 30.27 in 7.0 mi Calm Calm - N/A   Clear
2:35 AM 43.2 °F - 33.8 °F 70% 30.26 in 10.0 mi Calm Calm - N/A   Clear
2:55 AM 42.1 °F - 32.7 °F 69% 30.26 in 10.0 mi Calm Calm - N/A   Clear
3:15 AM 40.1 °F - 33.1 °F 76% 30.26 in 10.0 mi Calm Calm - N/A   Clear
3:35 AM 40.5 °F - 33.1 °F 75% 30.26 in 10.0 mi Calm Calm - N/A   Clear
3:55 AM 38.1 °F - 31.8 °F 78% 30.26 in 10.0 mi Calm Calm - N/A   Clear
4:15 AM 38.7 °F - 32.7 °F 79% 30.26 in 10.0 mi Calm Calm - N/A   Clear
4:35 AM 37.2 °F - 32.4 °F 83% 30.26 in 10.0 mi Calm Calm - N/A   Clear
4:55 AM 38.5 °F - 33.1 °F 81% 30.25 in 10.0 mi Calm Calm - N/A   Clear
5:15 AM 39.4 °F - 33.3 °F 79% 30.25 in 10.0 mi Calm Calm - N/A   Clear
5:35 AM 40.3 °F - 33.3 °F 76% 30.25 in 10.0 mi Calm Calm - N/A   Clear
5:55 AM 41.0 °F - 33.1 °F 73% 30.25 in 10.0 mi Calm Calm - N/A   Clear
6:15 AM 37.2 °F - 32.4 °F 83% 30.25 in 10.0 mi Calm Calm - N/A   Clear
6:35 AM 39.7 °F - 33.3 °F 78% 30.25 in 10.0 mi Calm Calm - N/A   Clear
6:55 AM 37.6 °F - 32.0 °F 80% 30.25 in 10.0 mi Calm Calm - N/A   Clear
7:15 AM 39.4 °F - 33.3 °F 79% 30.25 in 10.0 mi Calm Calm - N/A   Clear
7:35 AM 38.5 °F 36.1 °F 32.5 °F 79% 30.25 in 10.0 mi South 3.5 mph - N/A   Clear
7:55 AM 39.7 °F 37.6 °F 33.1 °F 77% 30.25 in 10.0 mi South 3.5 mph - N/A   Clear
8:15 AM 40.3 °F - 33.1 °F 75% 30.25 in 10.0 mi Calm Calm - N/A   Clear
8:35 AM 42.1 °F - 34.5 °F 75% 30.26 in 10.0 mi Calm Calm - N/A   Clear
8:55 AM 43.7 °F - 35.6 °F 73% 30.26 in 10.0 mi Calm Calm - N/A   Clear
9:15 AM 46.2 °F - 37.0 °F 70% 30.26 in 10.0 mi Calm Calm - N/A   Clear
9:35 AM 48.9 °F - 38.3 °F 67% 30.26 in 10.0 mi Calm Calm - N/A   Clear
9:55 AM 53.1 °F - 40.1 °F 61% 30.26 in 10.0 mi Calm Calm - N/A   Clear
10:15 AM 58.1 °F - 42.1 °F 55% 30.26 in 10.0 mi SW 9.2 mph - N/A   Clear
10:35 AM 60.4 °F - 43.3 °F 53% 30.26 in 10.0 mi SW 9.2 mph - N/A   Clear
10:55 AM 61.7 °F - 43.7 °F 52% 30.25 in 10.0 mi SW 10.4 mph - N/A   Clear
11:15 AM 62.8 °F - 43.7 °F 50% 30.24 in 10.0 mi SW 12.7 mph - N/A   Clear
11:35 AM 63.5 °F - 44.8 °F 51% 30.24 in 10.0 mi SW 11.5 mph - N/A   Clear
11:55 AM 64.6 °F - 45.0 °F 49% 30.22 in 10.0 mi SW 10.4 mph - N/A   Clear
12:15 PM 64.9 °F - 45.1 °F 49% 30.21 in 10.0 mi SSW 10.4 mph 16.1 mph N/A   Clear
12:35 PM 66.4 °F - 45.7 °F 47% 30.19 in 10.0 mi SSW 9.2 mph - N/A   Clear
12:55 PM 66.6 °F - 44.4 °F 45% 30.17 in 10.0 mi South 15.0 mph 19.6 mph N/A   Clear
1:15 PM 67.5 °F - 43.2 °F 41% 30.15 in 10.0 mi South 12.7 mph - N/A   Clear
1:35 PM 67.1 °F - 43.2 °F 42% 30.14 in 10.0 mi South 10.4 mph 16.1 mph N/A   Clear
1:55 PM 68.2 °F - 43.2 °F 40% 30.13 in 10.0 mi South 13.8 mph 18.4 mph N/A   Clear
2:15 PM 67.8 °F - 42.3 °F 39% 30.12 in 10.0 mi South 11.5 mph 17.3 mph N/A   Clear
2:35 PM 68.4 °F - 41.9 °F 38% 30.10 in 10.0 mi SSW 8.1 mph - N/A   Clear
2:55 PM 69.1 °F - 40.5 °F 35% 30.09 in 10.0 mi South 12.7 mph 17.3 mph N/A   Clear
3:15 PM 68.9 °F - 38.7 °F 33% 30.09 in 10.0 mi South 12.7 mph 17.3 mph N/A   Clear
3:35 PM 68.0 °F - 39.7 °F 36% 30.08 in 10.0 mi South 16.1 mph 20.7 mph N/A   Clear
3:55 PM 67.5 °F - 40.6 °F 38% 30.07 in 10.0 mi South 12.7 mph 20.7 mph N/A   Clear
4:15 PM 67.5 °F - 40.8 °F 38% 30.07 in 10.0 mi South 11.5 mph 17.3 mph N/A   Clear
4:35 PM 66.4 °F - 43.7 °F 44% 30.07 in 10.0 mi South 13.8 mph 19.6 mph N/A   Clear
4:55 PM 64.9 °F - 43.9 °F 46% 30.07 in 10.0 mi South 11.5 mph 18.4 mph N/A   Clear
5:15 PM 63.3 °F - 45.1 °F 52% 30.06 in 10.0 mi South 6.9 mph - N/A   Clear
5:35 PM 61.5 °F - 45.5 °F 56% 30.06 in 10.0 mi South 5.8 mph - N/A   Clear
5:55 PM 59.7 °F - 45.5 °F 59% 30.06 in 10.0 mi South 4.6 mph - N/A   Clear
6:15 PM 58.5 °F - 45.5 °F 62% 30.05 in 10.0 mi SSE 5.8 mph - N/A   Clear
6:35 PM 57.4 °F - 46.0 °F 66% 30.04 in 10.0 mi South 5.8 mph - N/A   Scattered Clouds
6:55 PM 57.4 °F - 46.6 °F 67% 30.05 in 10.0 mi South 8.1 mph - N/A   Scattered Clouds
7:15 PM 56.8 °F - 46.8 °F 69% 30.05 in 10.0 mi South 6.9 mph - N/A   Clear
7:35 PM 55.9 °F - 46.2 °F 70% 30.05 in 10.0 mi South 5.8 mph - N/A   Clear
7:55 PM 56.3 °F - 46.0 °F 68% 30.04 in 10.0 mi South 8.1 mph - N/A   Clear
8:15 PM 56.5 °F - 46.4 °F 69% 30.04 in 10.0 mi South 10.4 mph - N/A   Clear
8:35 PM 56.7 °F - 46.6 °F 69% 30.03 in 10.0 mi South 10.4 mph - N/A   Clear
8:55 PM 55.9 °F - 46.4 °F 70% 30.04 in 10.0 mi South 9.2 mph - N/A   Clear
9:15 PM 55.2 °F - 46.4 °F 72% 30.04 in 10.0 mi South 8.1 mph - N/A   Clear
9:35 PM 54.5 °F - 46.4 °F 74% 30.04 in 10.0 mi South 9.2 mph - N/A   Clear
9:55 PM 54.0 °F - 46.4 °F 76% 30.04 in 10.0 mi South 8.1 mph - N/A   Clear
10:15 PM 53.1 °F - 46.0 °F 77% 30.04 in 10.0 mi South 9.2 mph - N/A   Clear
10:35 PM 52.5 °F - 45.9 °F 78% 30.03 in 10.0 mi South 8.1 mph - N/A   Clear
10:55 PM 52.0 °F - 45.7 °F 79% 30.03 in 10.0 mi South 6.9 mph - N/A   Clear
11:15 PM 51.8 °F - 45.7 °F 80% 30.02 in 10.0 mi South 6.9 mph - N/A   Clear
11:35 PM 51.3 °F - 45.7 °F 81% 30.02 in 10.0 mi South 6.9 mph - N/A   Clear
11:55 PM 51.1 °F - 45.7 °F 82% 30.01 in 10.0 mi South 8.1 mph - N/A   Clear